Home   Weather   Camagüey   Past weeks

Flag for Cuba Past Weather in Camagüey, Cuba — Yesterday and Last 2 Weeks

Now
73 °F

Passing clouds.


Feels Like: 74 °F
Forecast: 68 / 82 °F
Wind: 10 mph from Northeast

Location: Camaguey Aeropuerto

Current Time: Dec 10, 2016 at 7:24:13 pm

Latest Report: Dec 10, 2016 at 6:50 pm


Visibility: 6 mi

Pressure: 30.12 "Hg

Humidity: 78%

Dew Point: 66 °F

Location of CamagüeyLocation

Past Weather in Camagüey — Graph

°F

Camagüey Temperature Yesterday

Maximum temperature yesterday: 84 °F (at 12:50 pm)
Minimum temperature yesterday: 66 °F (at 5:50 am)
Average temperature yesterday: 74 °F

High & Low Weather Summary for the Past Weeks

 TemperatureHumidityPressure
High90 °F (Dec 6, 2:50 pm)100% (Nov 26, 6:50 am)30.15 "Hg (Nov 26, 6:50 am)
Low63 °F (Nov 29, 4:50 am)31% (Dec 6, 2:50 pm)29.89 "Hg (Nov 28, 1:50 pm)
Average75 °F82%30.01 "Hg
* Reported Nov 25 5:50 pm — Dec 10 5:50 pm, Camagüey, Weather by CustomWeather, © 2016

Note: Actual official high and low records may vary slightly from our data, if they occured in-between our weather recording intervals... More about our weather records

Advertising

Camagüey Weather History for the Previous 24 Hours

Scroll right to see more
 ConditionsComfort  
Time TempWeatherWind HumidityBarometerVisibility
5:50 pm
Sat, Dec 10
75 °FPassing clouds.12 mph74%30.09 "Hg6 mi
4:50 pm79 °FPassing clouds.15 mph61%30.07 "Hg6 mi
3:50 pm82 °FPassing clouds.15 mph48%30.07 "Hg6 mi
2:50 pm82 °FPassing clouds.14 mph48%30.07 "Hg6 mi
1:50 pm84 °FPassing clouds.14 mph45%30.07 "Hg6 mi
12:50 pm84 °FScattered clouds.12 mph48%30.09 "Hg6 mi
11:50 am81 °FScattered clouds.15 mph54%30.12 "Hg6 mi
10:50 am81 °FScattered clouds.14 mph62%30.15 "Hg6 mi
9:50 am81 °FPartly sunny.18 mph66%30.15 "Hg6 mi
8:50 am75 °FPassing clouds.13 mph78%30.15 "Hg6 mi
7:50 am72 °FPassing clouds.9 mph83%30.15 "Hg6 mi
6:50 am70 °FPassing clouds.6 mph88%30.12 "Hg6 mi
5:50 am68 °FClear.6 mph88%30.12 "Hg6 mi
4:50 am68 °FClear.8 mph88%30.09 "Hg6 mi
3:50 am70 °FClear.7 mph88%30.09 "Hg6 mi
2:50 am70 °FClear.8 mph88%30.09 "Hg6 mi
1:50 am70 °FClear.7 mph88%30.12 "Hg6 mi
12:50 am70 °FClear.7 mph88%30.12 "Hg6 mi
11:50 pm
Fri, Dec 9
70 °FClear.6 mph83%30.12 "Hg6 mi
10:50 pm70 °FPassing clouds.9 mph88%30.12 "Hg6 mi
9:51 pm70 °FPassing clouds.9 mph88%30.12 "Hg6 mi
8:50 pm72 °FPassing clouds.9 mph83%30.12 "Hg6 mi
7:50 pm72 °FPassing clouds.10 mph83%30.12 "Hg6 mi
Weather by CustomWeather, © 2016

See weather overviewHow to use our weather pages